Location: All Nations United Methodist Church
(33.0215°N, 96.7483°W)
Time: 14:26:55
(UTC+00:00)

Cosmos 2150 Rocket - Pass Details

Date: 24 January 2021
Orbit: 748 x 808 km, 74.0° (Epoch: 06 March)

Event Time Altitude Azimuth Distance (km) Brightness Sun altitude
Rises 12:56:27 0° 339° (NNW) 3,280 6.9 -6.8°
Reaches altitude 10° 12:58:51 10° 336° (NNW) 2,357 6.1 -6.3°
Maximum altitude 13:04:08 62° 257° (WSW) 896 4.2 -5.3°
Drops below altitude 10° 13:09:28 10° 177° (S) 2,373 6.9 -4.2°
Sets 13:11:53 0° 174° (S) 3,304 7.7 -3.7°
